When you browse on this site, cookies collect data to enhance your experience and personalize the content and advertising you see.
Visit our Privacy Policy to learn more. By continuing to use the site, you agree to this use of cookies and data.
  • En España
  • Lista de países
  • Para 7 días
  • Temperatura del agua
  • Mapa Satelital
  • El tiempo en el mapa
  • Informadores
  • user-avatar
    Iniciar sesión

    Tiempo cada hora Brodenki

    Hoy, 23 Marzo, Sábado

    Tiempo Temperatura Precipitaciones Viento Presión Humedad
    00:00 -4°C° 0.1 mm 7 mps 743 mmHg 87%
    01:00 -4°C° 0.1 mm 6 mps 743 mmHg 88%
    02:00 -4°C° 0.1 mm 6 mps 743 mmHg 89%
    03:00 -2°C° 0 mm 4 mps 743 mmHg 91%
    04:00 -2°C° 0.1 mm 5 mps 744 mmHg 92%
    05:00 -2°C° 0.1 mm 5 mps 745 mmHg 93%
    06:00 -2°C° 0.1 mm 5 mps 745 mmHg 93%
    07:00 -2°C° 0.1 mm 5 mps 746 mmHg 93%
    08:00 -1°C° 0.1 mm 5 mps 747 mmHg 92%
    09:00 -1°C° 0 mm 5 mps 748 mmHg 91%
    10:00 -1°C° 0.1 mm 5 mps 749 mmHg 93%
    11:00 -1°C° 0.1 mm 5 mps 749 mmHg 94%
    12:00 -1°C° 0.1 mm 5 mps 749 mmHg 95%
    13:00 -1°C° 0 mm 5 mps 750 mmHg 95%
    14:00 -1°C° 0 mm 5 mps 750 mmHg 95%
    15:00 0°C° 0 mm 4 mps 750 mmHg 98%
    16:00 0°C° 0 mm 3 mps 750 mmHg 96%
    17:00 0°C° 0 mm 3 mps 750 mmHg 93%
    18:00 0°C° 0 mm 3 mps 750 mmHg 91%
    19:00 -1°C° 0 mm 3 mps 750 mmHg 92%
    20:00 -2°C° 0 mm 2 mps 750 mmHg 92%
    21:00 -2°C° 0 mm 2 mps 750 mmHg 93%
    22:00 -2°C° 0 mm 2 mps 750 mmHg 92%
    23:00 0°C° 0 mm 1 mps 750 mmHg 91%

    Mañana, 24 Marzo, Domingo

    Tiempo Temperatura Precipitaciones Viento Presión Humedad
    00:00 0°C° 0 mm 1 mps 750 mmHg 91%
    01:00 0°C° 0 mm 1 mps 749 mmHg 90%
    02:00 -1°C° 0 mm 1 mps 749 mmHg 90%
    03:00 -1°C° 0 mm 1 mps 748 mmHg 89%
    04:00 -1°C° 0 mm 1 mps 748 mmHg 89%
    05:00 -4°C° 0 mm 2 mps 747 mmHg 89%
    06:00 -4°C° 0 mm 2 mps 747 mmHg 89%
    07:00 -3°C° 0 mm 2 mps 746 mmHg 88%
    08:00 -2°C° 0 mm 3 mps 746 mmHg 88%
    09:00 -2°C° 0 mm 4 mps 745 mmHg 87%
    10:00 -2°C° 0.3 mm 4 mps 745 mmHg 90%
    11:00 -2°C° 0.3 mm 4 mps 744 mmHg 93%
    12:00 -2°C° 0.3 mm 5 mps 743 mmHg 95%
    13:00 -1°C° 0.3 mm 5 mps 743 mmHg 96%
    14:00 -1°C° 0.3 mm 5 mps 742 mmHg 96%
    15:00 -1°C° 0.3 mm 5 mps 742 mmHg 97%
    16:00 -1°C° 0.1 mm 4 mps 742 mmHg 97%
    17:00 -1°C° 0.1 mm 4 mps 741 mmHg 97%
    18:00 0°C° 0.1 mm 3 mps 741 mmHg 97%
    19:00 0°C° 0 mm 3 mps 741 mmHg 95%
    20:00 -1°C° 0 mm 3 mps 741 mmHg 94%
    21:00 -2°C° 0 mm 3 mps 741 mmHg 92%
    22:00 -2°C° 0 mm 3 mps 741 mmHg 91%
    23:00 -2°C° 0 mm 3 mps 741 mmHg 90%

    Pasado mañana, 25 Marzo, Lunes

    Tiempo Temperatura Precipitaciones Viento Presión Humedad
    00:00 -4°C° 0 mm 3 mps 741 mmHg 89%
    01:00 -4°C° 0 mm 3 mps 741 mmHg 89%
    02:00 -4°C° 0 mm 3 mps 742 mmHg 89%
    03:00 -5°C° 0 mm 3 mps 742 mmHg 90%
    04:00 -5°C° 0 mm 3 mps 742 mmHg 90%
    05:00 -5°C° 0 mm 3 mps 742 mmHg 90%
    06:00 -5°C° 0 mm 3 mps 742 mmHg 90%
    07:00 -4°C° 0 mm 4 mps 742 mmHg 87%
    08:00 -4°C° 0 mm 4 mps 742 mmHg 84%
    09:00 -3°C° 0 mm 4 mps 742 mmHg 82%
    10:00 -2°C° 0 mm 4 mps 742 mmHg 82%
    11:00 -1°C° 0 mm 4 mps 742 mmHg 82%
    12:00 0°C° 0 mm 4 mps 742 mmHg 83%
    13:00 0°C° 0 mm 4 mps 742 mmHg 80%
    14:00 +1°C° 0 mm 4 mps 742 mmHg 78%
    15:00 +1°C° 0 mm 5 mps 742 mmHg 76%
    16:00 +1°C° 0 mm 4 mps 742 mmHg 77%
    17:00 0°C° 0 mm 4 mps 742 mmHg 78%
    18:00 +1°C° 0 mm 3 mps 742 mmHg 79%
    19:00 0°C° 0 mm 3 mps 742 mmHg 80%
    20:00 -1°C° 0 mm 3 mps 742 mmHg 81%
    21:00 -1°C° 0 mm 3 mps 743 mmHg 82%
    22:00 -2°C° 0 mm 3 mps 743 mmHg 83%
    23:00 -2°C° 0 mm 3 mps 743 mmHg 83%

    26 Marzo, Martes

    Tiempo Temperatura Precipitaciones Viento Presión Humedad
    00:00 -2°C° 0 mm 3 mps 743 mmHg 83%
    01:00 -2°C° 0 mm 3 mps 743 mmHg 83%
    02:00 -2°C° 0 mm 3 mps 743 mmHg 82%
    03:00 -2°C° 0 mm 3 mps 743 mmHg 82%
    04:00 -2°C° 0 mm 3 mps 742 mmHg 82%
    05:00 -2°C° 0 mm 3 mps 742 mmHg 82%
    06:00 -2°C° 0 mm 3 mps 742 mmHg 83%
    07:00 -3°C° 0.1 mm 4 mps 742 mmHg 84%
    08:00 -2°C° 0.1 mm 4 mps 741 mmHg 84%
    09:00 -1°C° 0.1 mm 4 mps 741 mmHg 85%
    10:00 0°C° 0 mm 4 mps 741 mmHg 85%
    11:00 0°C° 0 mm 4 mps 740 mmHg 84%
    12:00 +1°C° 0 mm 5 mps 740 mmHg 84%
    13:00 +2°C° 0.1 mm 5 mps 739 mmHg 83%
    14:00 +2°C° 0.1 mm 5 mps 739 mmHg 81%
    15:00 +3°C° 0.1 mm 4 mps 738 mmHg 80%
    16:00 +1°C° 1.5 mm 5 mps 738 mmHg 85%
    17:00 0°C° 1.5 mm 5 mps 737 mmHg 90%
    18:00 -1°C° 1.5 mm 5 mps 737 mmHg 95%
    19:00 -2°C° 1 mm 6 mps 737 mmHg 94%
    20:00 -2°C° 1 mm 6 mps 737 mmHg 93%
    21:00 -2°C° 1 mm 6 mps 737 mmHg 93%
    22:00 -3°C° 0.2 mm 7 mps 737 mmHg 92%
    23:00 -4°C° 0.2 mm 7 mps 736 mmHg 92%

    27 Marzo, Miércoles

    Tiempo Temperatura Precipitaciones Viento Presión Humedad
    00:00 -4°C° 0.2 mm 7 mps 736 mmHg 91%
    01:00 -6°C° 0.5 mm 7 mps 736 mmHg 91%
    02:00 -7°C° 0.5 mm 8 mps 737 mmHg 91%
    03:00 -8°C° 0.5 mm 9 mps 737 mmHg 91%
    04:00 -8°C° 0.8 mm 9 mps 737 mmHg 90%
    05:00 -9°C° 0.8 mm 10 mps 737 mmHg 89%
    06:00 -9°C° 0.8 mm 10 mps 737 mmHg 88%
    07:00 -9°C° 0.7 mm 10 mps 738 mmHg 88%
    08:00 -9°C° 0.7 mm 10 mps 738 mmHg 88%
    09:00 -9°C° 0.7 mm 10 mps 738 mmHg 89%
    10:00 -8°C° 0.4 mm 10 mps 739 mmHg 88%
    11:00 -8°C° 0.4 mm 10 mps 740 mmHg 88%
    12:00 -7°C° 0.4 mm 10 mps 740 mmHg 87%
    13:00 -6°C° 0.2 mm 9 mps 741 mmHg 88%
    14:00 -5°C° 0.2 mm 9 mps 742 mmHg 89%
    15:00 -5°C° 0.2 mm 8 mps 743 mmHg 89%
    16:00 -5°C° 0.2 mm 8 mps 744 mmHg 88%
    17:00 -5°C° 0.2 mm 8 mps 744 mmHg 86%
    18:00 -4°C° 0.2 mm 7 mps 745 mmHg 84%
    19:00 -4°C° 0 mm 7 mps 746 mmHg 85%
    20:00 -4°C° 0 mm 6 mps 747 mmHg 85%
    21:00 -5°C° 0 mm 6 mps 748 mmHg 86%
    22:00 -6°C° 0 mm 5 mps 748 mmHg 87%
    23:00 -7°C° 0 mm 5 mps 748 mmHg 88%

    28 Marzo, Jueves

    Tiempo Temperatura Precipitaciones Viento Presión Humedad
    00:00 -8°C° 0 mm 4 mps 749 mmHg 89%
    01:00 -8°C° 0 mm 4 mps 749 mmHg 89%
    02:00 -9°C° 0 mm 4 mps 750 mmHg 89%
    03:00 -9°C° 0 mm 4 mps 750 mmHg 90%
    04:00 -9°C° 0 mm 4 mps 750 mmHg 90%
    05:00 -10°C° 0 mm 4 mps 750 mmHg 90%
    06:00 -9°C° 0 mm 3 mps 750 mmHg 91%
    07:00 -9°C° 0 mm 4 mps 750 mmHg 88%
    08:00 -7°C° 0 mm 4 mps 750 mmHg 85%
    09:00 -6°C° 0 mm 5 mps 750 mmHg 83%
    10:00 -5°C° 0 mm 6 mps 750 mmHg 84%
    11:00 -4°C° 0 mm 6 mps 750 mmHg 85%
    12:00 -3°C° 0 mm 7 mps 749 mmHg 86%
    13:00 -2°C° 0 mm 6 mps 749 mmHg 88%
    14:00 -2°C° 0 mm 6 mps 748 mmHg 91%
    15:00 -2°C° 0 mm 6 mps 747 mmHg 93%
    16:00 0°C° 0.1 mm 5 mps 747 mmHg 92%
    17:00 0°C° 0.1 mm 5 mps 746 mmHg 90%
    18:00 0°C° 0.1 mm 5 mps 746 mmHg 89%
    19:00 0°C° 0.3 mm 5 mps 745 mmHg 88%
    20:00 0°C° 0.3 mm 5 mps 744 mmHg 87%
    21:00 -1°C° 0.3 mm 6 mps 744 mmHg 87%
    22:00 -1°C° 0.4 mm 6 mps 743 mmHg 88%
    23:00 -1°C° 0.4 mm 6 mps 743 mmHg 90%
    Mostrar más